Regional Weather Roundup
Issued by NWS

Home | Current Version | Previous Version | Graphics & Text | Print | Product List | Glossary On
Versions: 1 2 3 4 5 6 7 8 9 10 11 12 13 14 15 16 17 18 19 20 21 22 23 24 25 26 27 28 29 30 31 32 33 34 35 36 37 38 39 40 41 42 43 44 45 46 47 48 49 50
000
ASUS43 KLOT 011903
RWRIL

ILLINOIS REGIONAL WEATHER ROUNDUP
NATIONAL WEATHER SERVICE CHICAGO/ROMEOVILLE IL
200 PM CDT SAT OCT 01 2016

NOTE: "FAIR" INDICATES FEW OR NO CLOUDS BELOW 12,000 FEET WITH NO
SIGNIFICANT WEATHER AND/OR OBSTRUCTIONS TO VISIBILITY.

* THESE STATIONS ARE NOT UNDER NWS QUALITY CONTROL. THEY ALSO MAY NOT
  REPORT WEATHER SUCH AS PRECIPITATION OR FOG.

ILZ001-002-007-009-015-016-024-012000-
NORTHWEST ILLINOIS

CITY           SKY/WX    TMP DP  RH WIND       PRES   REMARKS
MOLINE         CLOUDY    67  61  81 W6        30.01F
STERLING*      MOSUNNY   71  58  63 N5        30.00F
$$

ILZ003-004-008-010-011-017-018-012000-
NORTH CENTRAL ILLINOIS

CITY           SKY/WX    TMP DP  RH WIND       PRES   REMARKS
ROCKFORD       CLOUDY    63  59  87 N7        30.02F
ROCHELLE*      CLOUDY    62  59  90 NE8       30.02S
$$

ILZ005-006-012>014-019>023-012000-
NORTHEAST ILLINOIS

CITY           SKY/WX    TMP DP  RH WIND       PRES   REMARKS
CHICAGO-OHARE  LGT RAIN  63  60  90 N8        29.98F
CHICAGO-MIDWAY LGT RAIN  64  58  80 NE8       29.97F
AURORA         LGT RAIN  61  59  93 W6        30.00F FOG
LANSING*       CLOUDY    64  61  93 N6        29.97F
JOLIET*        DRIZZLE   62  60  96 NW5       29.99F
WAUKEGAN       LGT RAIN  61  59  93 N6        29.98F FOG
DUPAGE AIRPORT CLOUDY    63  59  87 N8        29.99F
KANKAKEE*      CLOUDY    63  58  84 CALM      29.99F
WHEELING       LGT RAIN  63  59  87 N9        29.99F
MORRIS*        LGT RAIN  61  59  94 NW3       29.99F
ROMEOVILLE*    CLOUDY    61  61 100 NW8       29.99F
NORTHERLY ISL    N/A     62  59  90 NE5         N/A
$$

LMZ740>746-012000-
SOUTHERN LAKE MICHIGAN

STATION/POSITION SKY/WX   TEMP    WIND        PRES    VSBY  WAVE
                          AIR SEA DIR/SP/G                  HT/PER
                          (F)     (DEG/KT/KT) (MB)    (MI)  (FT/S)
SOUTHERN BUOY              62 67   90/ 12/ 12 1015.6          3/ 4
WILMETTE HARBOR            60 61  120/  2/  2   N/A           4/ 6
HARRISON CRIB              62      50/  5/  6   N/A
BURNHAM HARBOR             62      30/  3/  5   N/A
CALUMET HARBOR             62      60/  6/  7 1014.8F
BURNS HARBOR               64      50/  6/  9 1015.2F
MICHIGAN CITY              60     110/  2/  3   N/A
MICHIGAN CITY 6N           61 64   50/  6/  8   N/A           3/ 6
ST. JOSEPH                 57 51  130/  4/  6 1015.4F         2/ 5
$$

ILZ025>027-034>036-040-047-049-050-058-095>099-012000-
WEST-CENTRAL ILLINOIS

CITY           SKY/WX    TMP DP  RH WIND       PRES   REMARKS
QUINCY         CLOUDY    66  57  72 NW9       30.03F
GALESBURG*     RAIN      65  61  85 NW3       30.02F
MACOMB*        CLOUDY    65  62  87 NW10      30.04F
JACKSONVILLE*  CLOUDY    65  62  91 NW9       30.02F
PITTSFIELD*    CLOUDY    65  61  85 NW6       30.04F
$$

ILZ028>032-037-038-041>044-048-051>054-059>061-012000-
CENTRAL ILLINOIS

CITY           SKY/WX    TMP DP  RH WIND       PRES   REMARKS
PONTIAC        CLOUDY    65  60  83 NW5       30.00F
BLOOMINGTON    CLOUDY    70  56  61 NW7       29.99F
DECATUR        SUNNY     69  55  60 CALM      29.99F
PEORIA         MOSUNNY   70  58  65 NE6       30.00F
LACON*         SUNNY     70  53  55 N3        29.98F
LINCOLN*       PTSUNNY   66  60  79 CALM      30.00F
SPRINGFIELD    CLOUDY    67  60  78 NW5       30.01F
TAYLORVILLE    CLOUDY    65  58  77 NW7       30.01F
$$

ILZ033-039-045-046-055>057-062-063-012000-
EAST-CENTRAL ILLINOIS

CITY           SKY/WX    TMP DP  RH WIND       PRES   REMARKS
CHAMPAIGN      MOSUNNY   68  56  65 N6        29.98F
RANTOUL*       CLOUDY    66  59  76 N6        29.99F
MATTOON        MOSUNNY   70  55  59 W8        29.98F
PARIS*         CLOUDY    67  57  70 CALM      29.99F
$$

ILZ079-100>102-012000-
SOUTHWEST ILLINOIS

CITY           SKY/WX    TMP DP  RH WIND       PRES   REMARKS
ALTON          PTSUNNY   66  59  77 W6        30.02F
BELLEVILLE     CLOUDY    67  62  85 W7        30.01F
CAHOKIA*       PTSUNNY   69  58  67 W8        30.02F
SPARTA*        CLOUDY    65  62  87 W7        30.04F
$$

ILZ064>066-069>071-074>076-080>082-084>086-088>090-092>094-012000-
SOUTH-CENTRAL ILLINOIS

CITY           SKY/WX    TMP DP  RH WIND       PRES   REMARKS
CARBONDALE     CLOUDY    67  62  84 NW8       30.03F
EFFINGHAM*     CLOUDY    70  60  69 W6        30.00F
MARION         CLOUDY    68  64  88 W9        30.03F
MT. VERNON     PTSUNNY   70  57  64 W8        30.01F
SALEM*         CLOUDY    70  60  70 NW8       30.00F
METROPOLIS*    PTSUNNY   70  62  75 SW6       30.04F
$$

ILZ067-068-072-073-078-083-087-091-012000-
SOUTHEAST ILLINOIS

CITY           SKY/WX    TMP DP  RH WIND       PRES   REMARKS
LAWRENCEVILLE  PTSUNNY   70  58  65 VRB6      29.99F
FLORA*         RAIN      68  62  79 N7        29.99F
FAIRFIELD*     PTSUNNY   71  59  65 W3        29.99F
HARRISBURG*    PTSUNNY   69  63  80 W9        30.01F
ROBINSON*      CLOUDY    67  59  76 CALM      30.00F
CARMI*         HVY RAIN  67  62  83 CALM      30.00S
$$

ABBREVIATIONS USED IN REMARKS
   TC - TEMPERATURE IN CELSIUS
  WCI - WIND CHILL INDEX
   HX - HEAT INDEX
  VSB - VISIBILITY
$$




USA.gov is the U.S. government's official web portal to all federal, state and local government web resources and services.